K4MDI Weather Reports


time (UTC)temp
C
wind
direction
speed
KPH
gust
KPH
rain 1hr
cm
rain 24hr
cm
rain mn
cm
humidity
%
barometer
mb
20260906083020 20 0.0 0.0 0.00 0.00 0.00
20260906082019 -17 0.0 0.0 0.00 0.00 0.00
20260906081043 -17 0.0 0.0 0.00 0.00 0.00
20260906080602 -17 0.0 0.0 0.00 0.00 0.00
20260906075519 -17 0.0 0.0 0.00 0.00 0.00
20260906074521 -17 0.0 0.0 0.00 0.00 0.00
20260906074040 -17 0.0 0.0 0.00 0.00 0.00
20260906073019 -17 0.0 0.0 0.00 0.00 0.00
20260906072128 -17 0.0 0.0 0.00 0.00 0.00
20260906071513 20 0.0 0.0 0.00 0.00 0.00 5 1011.3
20260906070519 21 0.0 0.0 0.00 0.00 0.00 3 1011.7
20260906065519 21 0.0 0.0 0.00 0.00 0.00 3 1011.7
20260906064519 21 0.0 0.0 0.00 0.00 0.00 3 1011.6
20260906063519 21 0.0 0.0 0.00 0.00 0.00 3 1011.8
20260906062519 21 0.0 0.0 0.00 0.00 0.00 4 1012.0
20260906061519 21 0.0 0.0 0.00 0.00 0.00 3 1012.2
20260906060539 21 0.0 0.0 0.00 0.00 0.00 4 1012.2
20260906055519 21 0.0 0.0 0.00 0.00 0.00 4 1012.5
20260906054519 21 0.0 0.0 0.00 0.00 0.00 4 1012.5
20260906053519 21 0.0 0.0 0.00 0.00 0.00 6 1012.6
20260906052519 21 0.0 0.0 0.00 0.00 0.00 6 1012.6
20260906051519 21 0.0 0.0 0.00 0.00 0.00 5 1012.6
20260906050519 21 0.0 0.0 0.00 0.00 0.00 8 1012.8
20260906045539 21 0.0 0.0 0.00 0.00 0.00 9 1012.7
20260906044539 21 0.0 0.0 0.00 0.00 0.00 10 1012.7
20260906043519 21 0.0 0.0 0.00 0.00 0.00 11 1012.8
20260906042519 22 0.0 0.0 0.00 0.00 0.00 11 1012.5
20260906041559 22 0.0 0.0 0.00 0.00 0.00 11 1012.7
20260906040519 22 0.0 0.0 0.00 0.00 0.00 11 1012.7
20260906035519 22 0.0 0.0 0.00 0.00 0.00 13 1012.8
20260906034539 22 0.0 0.0 0.00 0.00 0.00 14 1012.8
20260906033519 22 0.0 0.0 0.00 0.00 0.00 13 1012.9
20260906032519 22 0.0 0.0 0.00 0.00 0.00 16 1012.4
20260906031519 22 0.0 0.0 0.00 0.00 0.00 21 1012.7
20260906030539 22 0.0 0.0 0.00 0.00 0.00 22 1012.9
20260906025519 22 0.0 0.0 0.00 0.00 0.00 24 1012.4
20260906024519 22 0.0 0.0 0.00 0.00 0.00 29 1012.5
20260906023518 22 0.0 0.0 0.00 0.00 0.00 29 1012.3
20260906022519 22 0.0 0.0 0.00 0.00 0.00 30 1012.0
20260906021519 22 0.0 0.0 0.00 0.00 0.00 33 1012.1
20260906020519 22 0.0 0.0 0.00 0.00 0.00 34 1012.2
20260906015519 23 0.0 0.0 0.00 0.00 0.00 36 1012.2
20260906014519 23 0.0 0.0 0.00 0.00 0.00 40 1012.4
20260906013541 23 0.0 0.0 0.00 0.00 0.00 46 1012.0
20260906012559 23 0.0 0.0 0.00 0.00 0.00 47 1011.9
20260906011519 23 0.0 0.0 0.00 0.00 0.00 51 1011.7
20260906010519 23 0.0 0.0 0.00 0.00 0.00 56 1011.8
20260906005518 23 0.0 0.0 0.00 0.00 0.00 58 1011.6
20260906004519 24 0.0 0.0 0.00 0.00 0.00 60 1011.5
20260906003519 24 0.0 0.0 0.00 0.00 0.00 64 1011.1
20260906002518 25 0.0 0.0 0.00 0.00 0.00 67
20260906001519 25 0.0 0.0 0.00 0.00 0.00 70
20260906000519 25 0.0 0.0 0.00 0.00 0.00 71
20260905235519 26 0.0 0.0 0.00 0.00 0.00 72 1011.0
20260905234518 26 0.0 0.0 0.00 0.00 0.00 73 1010.9
20260905233519 26 0.0 0.0 0.00 0.00 0.00 73 1010.9
20260905232518 27 0.0 0.0 0.00 0.00 0.00 72
20260905231518 27 0.0 0.0 0.00 0.00 0.00 72
20260905230518 27 0.0 0.0 0.00 0.00 0.00 72
20260905225539 27 0.0 0.0 0.00 0.00 0.00 71
20260905224518 28 0.0 0.0 0.00 0.00 0.00 71
20260905223558 28 0.0 0.0 0.00 0.00 0.00 71
20260905222539 28 0.0 0.0 0.00 0.00 0.00 71
20260905221519 28 0.0 0.0 0.00 0.00 0.00 71
20260905220518 28 0.0 0.0 0.00 0.00 0.00 71
20260905215518 28 0.0 0.0 0.00 0.00 0.00 71
20260905214540 28 0.0 0.0 0.00 0.00 0.00 70
20260905213558 28 0.0 0.0 0.00 0.00 0.00 69
20260905212518 29 0.0 0.0 0.00 0.00 0.00 69
20260905211518 29 0.0 0.0 0.00 0.00 0.00 66
20260905210519 29 0.0 0.0 0.00 0.00 0.00 67
20260905205538 28 0.0 0.0 0.00 0.00 0.00 70
20260905204558 28 0.0 0.0 0.00 0.00 0.00 68
20260905203520 28 0.0 0.0 0.00 0.00 0.00 68
20260905202518 28 0.0 0.0 0.00 0.00 0.00 66
20260905201538 28 0.0 0.0 0.00 0.00 0.00 66
20260905200518 28 0.0 1.6 0.00 0.00 0.00 65
20260905195519 28 0.0 0.0 0.00 0.00 0.00 65
20260905194520 29 0.0 0.0 0.00 0.00 0.00 63
20260905193518 30 0.0 0.0 0.00 0.00 0.00 60
20260905192518 31 0.0 3.2 0.00 0.00 0.00 57 1012.2
20260905191538 33 0.0 4.8 0.00 0.00 0.00 52 1011.9
20260905190540 36 113 1.6 4.8 0.00 0.00 0.00 47 1011.9
20260905185520 37 0.0 0.0 0.00 0.00 0.00 46 1011.6
20260905184518 38 0.0 0.0 0.00 0.00 0.00 43 1011.4
20260905183520 39 0.0 4.8 0.00 0.00 0.00 41 1011.5
20260905182520 38 0.0 6.4 0.00 0.00 0.00 42 1011.4
20260905181538 38 0.0 3.2 0.00 0.00 0.00 46 1011.6
20260905180520 38 0.0 1.6 0.00 0.00 0.00 43 1012.0
20260905175520 37 293 1.6 9.7 0.00 0.00 0.00 44 1012.1
20260905174540 38 0.0 4.8 0.00 0.00 0.00 43 1012.2
20260905173518 38 0.0 1.6 0.00 0.00 0.00 42 1012.3
20260905172520 38 0.0 0.0 0.00 0.00 0.00 44 1012.3
20260905171520 37 0.0 0.0 0.00 0.00 0.00 46 1012.3
20260905170520 37 0.0 0.0 0.00 0.00 0.00 46 1012.4
20260905165520 36 0.0 1.6 0.00 0.00 0.00 52 1012.6
20260905164520 36 293 1.6 4.8 0.00 0.00 0.00 54 1012.9
20260905163520 36 0.0 1.6 0.00 0.00 0.00 52 1013.2
20260905162620 35 0.0 4.8 0.00 0.00 0.00 53 1013.3
20260905161520 35 0.0 0.0 0.00 0.00 0.00 54 1013.4
20260905160519 35 0.0 6.4 0.00 0.00 0.00 56 1013.5
20260905155520 33 0.0 1.6 0.00 0.00 0.00 58 1013.5
20260905154520 33 270 1.6 6.4 0.00 0.00 0.00 61 1013.7
20260905153520 33 0.0 0.0 0.00 0.00 0.00 62 1013.8
20260905152539 33 0.0 1.6 0.00 0.00 0.00 61 1013.9
20260905151520 32 0.0 1.6 0.00 0.00 0.00 63 1013.9
20260905150520 32 0.0 1.6 0.00 0.00 0.00 64 1014.0
20260905145519 31 0.0 0.0 0.00 0.00 0.00 70 1014.0
20260905144520 31 0.0 1.6 0.00 0.00 0.00 70 1013.9
20260905143520 30 0.0 1.6 0.00 0.00 0.00 71 1014.0
20260905142519 29 0.0 0.0 0.00 0.00 0.00 72 1014.0
20260905141539 28 0.0 0.0 0.00 0.00 0.00 71 1014.2
20260905140519 28 0.0 0.0 0.00 0.00 0.00 69 1014.3
20260905135520 27 0.0 0.0 0.00 0.00 0.00 65 1014.3
20260905134520 27 0.0 0.0 0.00 0.00 0.00 50 1014.5
20260905133519 26 0.0 0.0 0.00 0.00 0.00 46 1014.4
20260905132520 26 0.0 0.0 0.00 0.00 0.00 32 1014.4
20260905131519 25 0.0 4.8 0.00 0.00 0.00 24 1014.2
20260905130519 24 0.0 3.2 0.00 0.00 0.00 11 1014.1
20260905125519 24 0.0 1.6 0.00 0.00 0.00 1 1014.0
20260905124540 23 0.0 0.0 0.00 0.00 0.00 1 1014.0
20260905123540 23 0.0 0.0 0.00 0.00 0.00 1 1013.9
20260905122519 23 0.0 0.0 0.00 0.00 0.00
20260905122110 -17 0.0 0.0 0.00 0.00 0.00
20260905121019 -17 0.0 0.0 0.00 0.00 0.00
20260905120126 -17 0.0 0.0 0.00 0.00 0.00
20260905115019 -17 0.0 0.0 0.00 0.00 0.00
20260905114020 -17 0.0 0.0 0.00 0.00 0.00
20260905113601 21 0.0 0.0 0.00 0.00 0.00 97 1013.7
20260905113102 21 0.0 0.0 0.00 0.00 0.00 97 1013.7
20260905112519 21 0.0 0.0 0.00 0.00 0.00 97 1013.8
20260905111519 22 0.0 0.0 0.00 0.00 0.00 97 1013.6
20260905110539 22 0.0 0.0 0.00 0.00 0.00
20260905110144 -17 0.0 0.0 0.00 0.00 0.00 1011.7
20260905110022 -17 0.0 0.0 0.00 0.00 0.00
20260905105039 -17 0.0 0.0 0.00 0.00 0.00
20260905104519 -17 0.0 0.0 0.00 0.00 0.00
20260905103521 -17 0.0 0.0 0.00 0.00 0.00
20260905102519 -17 0.0 0.0 0.00 0.00 0.00
20260905101642 -17 0.0 0.0 0.00 0.00 0.00
20260905101156 -17 0.0 0.0 0.00 0.00 0.00
20260905100019 -17 0.0 0.0 0.00 0.00 0.00
20260905095128 -17 0.0 0.0 0.00 0.00 0.00
20260905094552 -17 0.0 0.0 0.00 0.00 0.00
20260905093519 -17 0.0 0.0 0.00 0.00 0.00
20260905092611 -17 0.0 0.0 0.00 0.00 0.00
20260905092026 -17 0.0 0.0 0.00 0.00 0.00
20260905091019 -17 0.0 0.0 0.00 0.00 0.00
20260905090113 -17 0.0 0.0 0.00 0.00 0.00
20260905090004 -17 210 0.0 0.0 0.00 0.00 0.00 1011.5
20260905085633 -17 0.0 0.0 0.00 0.00 0.00
20260905085043 -17 0.0 0.0 0.00 0.00 0.00
20260905084039 -17 0.0 0.0 0.00 0.00 0.00